Geostationary
NORAD ID: 37810
Int'l Code: 2011-049B
Perigee: 35,775.3 km
Apogee: 35,812.9 km
Inclination: 0.1 °
Period: 1,436.1 minutes
Semi major axis: 42165 km
Launch date: September 21, 2011
Source: Arab Satellite Communications Organization (AB)
Comments: ARABSAT 5C is a communications satellite for broadcasting and Internet services. The satellite is destined for an orbital slot 22,300 miles (35,888 km) over the equator at 20 degrees east longitude. The satellite's mission is to provide broadcasting, telephony, professional communications, Internet routing, VSAT and interactive services across the Middle East and Africa.
Two Line Element Set (TLE):
1 37810U 11049B 13138.10955149 .00000123 00000-0 00000+0 0 3106
2 37810 000.0643 005.7856 0004467 100.6857 188.8937 01.00270499 6140
Source: AFSPC
NASA's NSSDC Master Catalog entry for ARABSAT 5C